Regional Weather Roundup
Issued by NWS Upton, NY

Current Version | Previous Version | Text Only | Print | Product List | Glossary On
Versions: 1 2 3 4 5 6 7 8 9 10 11 12 13 14 15 16 17 18 19 20 21 22 23 24 25 26 27
000 ASUS41 KOKX 251604 RWROKX REGIONAL WEATHER ROUNDUP NATIONAL WEATHER SERVICE NEW YORK NY 1200 PM EDT WED MAY 25 2016 NOTE: "FAIR" INDICATES FEW OR NO CLOUDS BELOW 12,000 FEET WITH NO SIGNIFICANT WEATHER AND/OR OBSTRUCTIONS TO VISIBILITY. NYZ071-072-176-178-NJZ106-104-251700- NEW YORK CITY METRO AREA CITY SKY/WX TMP DP RH WIND PRES REMARKS CENTRAL PARK SUNNY 83 50 31 VRB5 30.09F LAGUARDIA APRT MOSUNNY 83 50 31 W8 30.05F KENNEDY INTL MOSUNNY 79 53 40 SW12 30.07S NEWARK/LIBERTY MOSUNNY 85 46 25 W6 30.06S BRNX BOT. GARD N/A 82 48 30 W2 30.08F TETERBORO SUNNY 85 45 24 W9G16 30.05S $$ NYZ177-179-078>081-251700- LONG ISLAND NEW YORK CITY SKY/WX TMP DP RH WIND PRES REMARKS FARMINGDALE SUNNY 83 49 30 W8 30.06S ISLIP MOSUNNY 84 50 30 W8 30.05S SHIRLEY SUNNY 83 53 35 MISG 30.05S RIVERHEAD N/A 81 55 41 E1 30.04S WESTHAMPTON NOT AVBL EAST HAMPTON FAIR 77 45 32 W13 30.04S MONTAUK POINT N/A 70 54 56 W8 30.05S $$ NYZ052-065-067-251700- HUDSON VALLEY CITY SKY/WX TMP DP RH WIND PRES REMARKS WHITE PLAINS SUNNY 81 51 35 W7 30.06S NEWBURGH SUNNY 79 57 47 NW9 30.07F MONTGOMERY SUNNY 84 50 30 W9 30.05S POUGHKEEPSIE SUNNY 80 54 40 W3 30.04F ALBANY MOSUNNY 79 52 38 S6 30.01F $$ NJZ001-105-106-008-010-013-015-019>022-104-251700- NEW JERSEY CITY SKY/WX TMP DP RH WIND PRES REMARKS NEWARK/LIBERTY MOSUNNY 85 46 25 W6 30.06S TETERBORO SUNNY 85 45 24 W9G16 30.05S CALDWELL SUNNY 83 44 25 VRB7 30.07S MORRISTOWN SUNNY 82 45 26 N10 30.07F SOMERVILLE SUNNY 81 50 33 VRB3 30.07S SUSSEX SUNNY 83 44 25 NW6 30.07F ANDOVER N/A 81 46 29 MISG 30.09S TRENTON SUNNY 81 50 33 W7 30.09S MILLVILLE SUNNY 84 46 26 W13G20 30.11S ATLANTIC CITY SUNNY 84 41 21 W13 30.10S WRIGHTSTOWN NOT AVBL TOMS RIVER SUNNY 84 45 24 W12 30.09F BELMAR SUNNY 82 48 30 W12 30.09F $$ PAZ047>061-062-071-251700- EASTERN PENNSYLVANIA CITY SKY/WX TMP DP RH WIND PRES REMARKS PHILADELPHIA PTSUNNY 82 43 25 S8 30.11S ALLENTOWN SUNNY 82 50 32 SW7 30.10S SCRANTON SUNNY 78 48 34 SW8 30.10F $$ CTZ002-004>006-009-010-012-RIZ004-006-007-MAZ004-011-015-251700- SOUTHERN NEW ENGLAND IN CT CITY SKY/WX TMP DP RH WIND PRES REMARKS BRADLEY INTL MOSUNNY 84 47 27 W12 30.00S HARTFORD SUNNY 85 48 27 NW9G17 30.01S DANBURY SUNNY 79 54 41 SW8 30.07S WTRBRY/OXFORD NOT AVBL BRIDGEPORT SUNNY 75 54 47 SW10 30.04F MERIDEN SUNNY 82 52 35 W8 30.02F NEW HAVEN SUNNY 70 55 59 SW8 30.04S CHESTER FAIR 79 50 36 VRB7G13 30.04S GROTON SUNNY 65 60 84 SW8 30.02F WILLIMANTIC SUNNY 82 47 29 W12G21 30.01F IN RI CITY SKY/WX TMP DP RH WIND PRES REMARKS PROVIDENCE SUNNY 73 57 57 SE8 30.01S BLOCK ISLAND SUNNY 67 56 67 W15 30.04S WESTERLY SUNNY 68 55 63 W8 30.03F IN MA CITY SKY/WX TMP DP RH WIND PRES REMARKS BOSTON SUNNY 67 58 72 E8 30.00S WORCESTER SUNNY 76 48 37 W10 30.02S WESTFIELD SUNNY 85 43 22 NW14G22 30.00F PROVINCETOWN SUNNY 70 58 65 SW10 30.02F NANTUCKET MOSUNNY 60 54 80 SW13 30.05S $$ ANZ330-335-338-340-345-350-353-355-251700- COASTAL MARINE OBSERVATIONS STATION/POSITION TIME SKY/WX TEMP WIND PRES VSBY WAVE AIR SEA DIR/SP/G HT/PER (UTC) (F) (DEG/KT/KT) (MB) (MI) (FT/S) NY HARB ENTRANCE 1450 63 60 240/ 4/ 6 1018.1 2/ 8 20S FIRE ISLAND 1450 59 56 240/ 8/ 10 1018.1 3/10 GREAT SOUTH BAY 1500 64 65 230/ 8/ 10 N/A 23 SSW MONTAUK P 1550 58 55 250/ 12/ 12 1017.0 3/ 8 15 E BARNEGAT LI NOT AVBL HUDSON CANYON 1450 56 54 1018.9 4/ 6 KINGS POINT 1500 71 57 1017.7 EXECUTION ROCKS NOT AVBL CENTRAL LI SOUND 1500 60 260/ 10/ 12 N/A 0 EASTERN LI SOUND 1500 56 54 220/ 4/ 6 N/A ROBBINS REEF 1506 77 250/ 6/ 7 1017.4 $$ >>>>>>>>>>>>>>>>>>>>>>>>>>>> KEY <<<<<<<<<<<<<<<<<<<<<<<<<<< > < > SKY/WX - SKY CONDITION/PRESENT WEATHER < > TMP - TEMPERATURE IN FAHRENHEIT < > DP - DEWPOINT IN FAHRENHEIT < > RH - RELATIVE HUMIDITY IN PERCENT < > WIND - DIRECTION AND SPEED IN MPH < > PRES - MEAN SEA LEVEL PRESSURE IN INCHES OF HG < > WCI - WIND CHILL INDEX < > VSB - VISIBILITY IN MILES < > HX - HEAT INDEX < > TC - TEMPERATURE IN CELSIUS < > VRB - VARIABLE WIND DIRECTION < > < >>>>>>>>>>>>>>>>>>>>>>>>>>>> KEY <<<<<<<<<<<<<<<<<<<<<<<<<<<

USA.gov is the U.S. government's official web portal to all federal, state and local government web resources and services.